Rotterdam, Netherlands

5:10 PM CET on February 25, 2018 (GMT +0100)
Rotterdam

Weather History for EHRD - April, 2014

Change the Weather History Date:

Sunday, April 27, 2014

  Actual Average Record
Temperature  
Mean Temperature 56 °F -  
Max Temperature 62 °F 61 °F 77 °F (2007)
Min Temperature 50 °F 45 °F 32 °F (2017)
Degree Days  
Heating Degree Days 9    
Growing Degree Days 6 (Base 50)    
Moisture  
Dew Point 49 °F    
Average Humidity 78    
Maximum Humidity 100    
Minimum Humidity 51    
Precipitation  
Precipitation 0.00 in - - ()
Sea Level Pressure  
Sea Level Pressure 29.73 in    
Wind  
Wind Speed 5 mph ()    
Max Wind Speed 13 mph    
Max Gust Speed -    
Visibility 8.7 miles    
Events Rain    
Averages and records for this station are not official NWS values.
T = Trace of Precipitation, MM = Missing Value Source: Averaged Metar Reports

Daily Weather History Graph

Daily Weather History Graph

Search for Another Location

Airport or City:

Trip Planner

Search our weather history database for the weather conditions in past years. The results will help you decide how hot, cold, wet, or windy it might be!

Date:

Astronomy

Apr. 27, 2014 Rise Set
Actual Time 6:20 AM CEST 8:59 PM CEST
Civil Twilight 5:43 AM CEST 9:38 PM CEST
Nautical Twilight 4:54 AM CEST 10:26 PM CEST
Astronomical Twilight 3:55 AM CEST 11:26 PM CEST
Moon 5:28 AM CEST (4/27) 7:04 PM CEST (4/27)
Length of Visible Light 15h 55m
Length of Day
14h 39m
Waning Crescent, 4% of the Moon is Illuminated
Apr 27
Waning Crescent
Apr 29
New
May 7
First Quarter
May 14
Full
May 21
Last Quarter

Hourly Weather History & Observations

Time (CEST) Temp. Dew Point Humidity Pressure Visibility Wind Dir Wind Speed Gust Speed Precip Events Conditions
12:00 AM 53 °F 49 °F 81% 29.78 in 8 mi SSE 4.5 mph - - Rain Light Rain Showers
12:25 AM 53.6 °F 50.0 °F 88% 29.77 in 6.2 mi East 3.5 mph - N/A Rain Light Rain
12:55 AM 51.8 °F 48.2 °F 88% 29.74 in 6.2 mi East 4.6 mph - N/A   Partly Cloudy
1:00 AM 51 °F 48 °F 87% 29.77 in 25 mi East 4.5 mph - - Rain Rain
1:25 AM 51.8 °F 50.0 °F 94% 29.74 in 6.2 mi East 4.6 mph - N/A   Unknown
1:55 AM 51.8 °F 50.0 °F 94% 29.74 in 6.2 mi ESE 2.3 mph - N/A   Unknown
2:00 AM 52 °F 49 °F 88% 29.75 in 22 mi ESE 2.2 mph - -   Partly Cloudy
2:25 AM 51.8 °F 50.0 °F 94% 29.74 in 6.2 mi ESE 3.5 mph - N/A   Unknown
2:55 AM 53.6 °F 48.2 °F 82% 29.74 in 6.2 mi SE 4.6 mph - N/A   Unknown
3:00 AM 53 °F 48 °F 78% 29.75 in 19 mi SE 4.5 mph - -   Overcast
3:25 AM 51.8 °F 48.2 °F 88% 29.71 in 6.2 mi SE 4.6 mph - N/A   Unknown
3:55 AM 51.8 °F 48.2 °F 88% 29.74 in 6.2 mi SSE 3.5 mph - N/A   Unknown
4:00 AM 52 °F 48 °F 82% 29.74 in 17 mi SE 4.5 mph - -   Overcast
4:25 AM 51.8 °F 48.2 °F 88% 29.71 in 6.2 mi SSE 4.6 mph - N/A   Unknown
4:55 AM 51.8 °F 48.2 °F 88% 29.71 in 6.2 mi SSE 4.6 mph - N/A Rain Light Drizzle
5:00 AM 52 °F 48 °F 81% 29.73 in 14 mi SSE 2.2 mph - - Rain Rain
5:25 AM 51.8 °F 48.2 °F 88% 29.71 in 6.2 mi SSE 3.5 mph - N/A   Partly Cloudy
5:55 AM 51.8 °F 48.2 °F 88% 29.71 in 6.2 mi Variable 2.3 mph - N/A Rain Light Rain
6:00 AM 51 °F 48 °F 85% 29.73 in 9 mi East 2.2 mph - - Rain Light Rain Showers
6:25 AM 50.0 °F 50.0 °F 100% 29.71 in 5.6 mi East 3.5 mph - N/A   Unknown
6:55 AM 51.8 °F 48.2 °F 88% 29.71 in 6.2 mi SSE 4.6 mph - N/A   Unknown
7:00 AM 52 °F 48 °F 81% 29.73 in 9 mi SSE 8.9 mph - - Rain Rain
7:25 AM 51.8 °F 48.2 °F 88% 29.71 in 6.2 mi South 9.2 mph - N/A   Unknown
7:55 AM 51.8 °F 48.2 °F 88% 29.71 in 6.2 mi SE 4.6 mph - N/A   Unknown
8:00 AM 53 °F 48 °F 77% 29.74 in 19 mi SSE 4.5 mph - -   Partly Cloudy
8:25 AM 53.6 °F 48.2 °F 82% 29.71 in 6.2 mi South 6.9 mph - N/A   Partly Cloudy
8:55 AM 53.6 °F 48.2 °F 82% 29.71 in 6.2 mi SE 4.6 mph - N/A   Unknown
9:00 AM 54 °F 48 °F 73% 29.73 in 14 mi SE 4.5 mph - -   Scattered Clouds
9:25 AM 53.6 °F 48.2 °F 82% 29.71 in 6.2 mi SSE 5.8 mph - N/A   Partly Cloudy
9:55 AM 53.6 °F 48.2 °F 82% 29.71 in 6.2 mi South 5.8 mph - N/A   Partly Cloudy
10:00 AM 54 °F 48 °F 74% 29.73 in 14 mi SSE 6.7 mph - -   Partly Cloudy
10:25 AM 53.6 °F 48.2 °F 82% 29.71 in 6.2 mi South 5.8 mph - N/A   Unknown
10:55 AM 55.4 °F 48.2 °F 77% 29.71 in 6.2 mi South 5.8 mph - N/A   Scattered Clouds
11:00 AM 55 °F 49 °F 73% 29.73 in 12 mi South 4.5 mph - -   Scattered Clouds
11:25 AM 55.4 °F 48.2 °F 77% 29.71 in 6.2 mi SSE 4.6 mph - N/A   Unknown
11:55 AM 55.4 °F 48.2 °F 77% 29.71 in 6.2 mi ESE 4.6 mph - N/A   Unknown
12:00 PM 56 °F 49 °F 70% 29.73 in 13 mi ESE 4.5 mph - -   Scattered Clouds
12:25 PM 55.4 °F 48.2 °F 77% 29.71 in 6.2 mi ESE 5.8 mph - N/A   Unknown
12:55 PM 57.2 °F 50.0 °F 77% 29.71 in 6.2 mi East 5.8 mph - N/A   Unknown
1:00 PM 58 °F 49 °F 64% 29.73 in 15 mi SE 4.5 mph - -   Partly Cloudy
1:25 PM 59.0 °F 50.0 °F 72% 29.71 in 6.2 mi Variable 4.6 mph - N/A   Mostly Cloudy
1:55 PM 59.0 °F 50.0 °F 72% 29.71 in 6.2 mi Variable 4.6 mph - N/A   Mostly Cloudy
2:00 PM 59 °F 50 °F 64% 29.73 in 15 mi East 6.7 mph - -   Partly Cloudy
2:25 PM 59.0 °F 48.2 °F 67% 29.71 in 6.2 mi East 6.9 mph - N/A   Scattered Clouds
2:55 PM 60.8 °F 48.2 °F 63% 29.71 in 6.2 mi East 6.9 mph - N/A   Partly Cloudy
3:00 PM 61 °F 48 °F 51% 29.73 in 17 mi East 6.7 mph - -   Scattered Clouds
3:25 PM 60.8 °F 50.0 °F 68% 29.71 in 6.2 mi East 6.9 mph - N/A   Partly Cloudy
3:55 PM 60.8 °F 48.2 °F 63% 29.71 in 6.2 mi ENE 8.1 mph - N/A   Scattered Clouds
4:00 PM 62 °F 49 °F 54% 29.72 in 13 mi East 6.7 mph - -   Overcast
4:25 PM 60.8 °F 50.0 °F 68% 29.71 in 6.2 mi ENE 8.1 mph - N/A   Partly Cloudy
4:55 PM 59.0 °F 48.2 °F 67% 29.71 in 6.2 mi NE 10.4 mph - N/A   Overcast
5:00 PM 59 °F 49 °F 60% 29.72 in 15 mi ENE 11.2 mph - -   Scattered Clouds
5:25 PM 59.0 °F 50.0 °F 72% 29.71 in 6.2 mi ENE 10.4 mph - N/A   Unknown
5:55 PM 59.0 °F 50.0 °F 72% 29.71 in 6.2 mi East 10.4 mph - N/A   Unknown
6:00 PM 59 °F 49 °F 62% 29.72 in 13 mi East 8.9 mph - -   Scattered Clouds
6:25 PM 59.0 °F 50.0 °F 72% 29.71 in 6.2 mi ENE 12.7 mph - N/A   Unknown
6:55 PM 59.0 °F 48.2 °F 67% 29.71 in 6.2 mi East 11.5 mph - N/A   Unknown
7:00 PM 58 °F 49 °F 63% 29.73 in 16 mi East 11.2 mph - -   Overcast
7:25 PM 59.0 °F 50.0 °F 72% 29.71 in 6.2 mi East 10.4 mph - N/A   Unknown
7:55 PM 57.2 °F 50.0 °F 77% 29.71 in 6.2 mi East 11.5 mph - N/A   Partly Cloudy
8:00 PM 57 °F 49 °F 68% 29.74 in 17 mi East 8.9 mph - -   Partly Cloudy
8:25 PM 57.2 °F 50.0 °F 77% 29.74 in 6.2 mi East 9.2 mph - N/A   Unknown
8:55 PM 55.4 °F 48.2 °F 77% 29.74 in 6.2 mi East 10.4 mph - N/A   Unknown
9:00 PM 55 °F 49 °F 72% 29.76 in 18 mi East 8.9 mph - -   Mostly Cloudy
9:25 PM 55.4 °F 50.0 °F 82% 29.74 in 6.2 mi ENE 8.1 mph - N/A   Unknown
9:55 PM 55.4 °F 50.0 °F 82% 29.77 in 6.2 mi ENE 9.2 mph - N/A   Unknown
10:00 PM 54 °F 50 °F 82% 29.78 in 15 mi East 8.9 mph - -   Partly Cloudy
10:25 PM 53.6 °F 50.0 °F 88% 29.77 in 6.2 mi ENE 8.1 mph - N/A   Unknown
10:55 PM 53.6 °F 50.0 °F 88% 29.77 in 6.2 mi East 9.2 mph - N/A   Unknown
11:00 PM 53 °F 50 °F 86% 29.78 in 12 mi East 8.9 mph - -   Partly Cloudy
11:25 PM 53.6 °F 50.0 °F 88% 29.77 in 6.2 mi East 8.1 mph - N/A   Unknown
11:55 PM 50.0 °F 48.2 °F 94% 29.77 in 6.2 mi ENE 6.9 mph - N/A   Unknown